Location: Rounton
(54.4000°N, 1.3500°W)
Time: 09:16:21
(UTC+01:00)

A-11 Canister half - Pass Details

Date: 28 June 2022
Orbit: 1525 x 1683 km, 47.3° (Epoch: 10 August)

Event Time Altitude Azimuth Distance (km) Brightness Sun altitude
Rises 23:50:56 0° 278° (W) 4,703 11.9 -10.5°
Reaches altitude 10° 23:54:12 10° 272° (W) 3,708 11.3 -10.7°
Maximum altitude 00:02:39 41° 207° (SSW) 2,087 9.4 -11.0°
Drops below altitude 10° 00:11:06 10° 141° (SE) 3,701 10.5 -11.3°
Enters shadow 00:11:23 - 140° (SE) 3,783 10.5 -11.3°
